[[{"header":{"parameterUnit":"m.s-1","parameterCategory":1,"la1":30.2991,"la2":30.254,"lo1":-89.0895,"lo2":-89.0444,"dy":0.0017,"dx":0.0017,"nx":28,"ny":28,"refTime":"2025-12-12T09:00:00:Z","depth":0,"parameterNumber":2,"parameterNumberName":"U-component_of_WINDS"},"data":[0,0,0,0,0,0,0,0,0,0,0,0,0,0,0,0,0,0,0,0,0,0,0,0,0,0,0,0,0,0,0,0,0,0,0,0,0,0,0,0,0,0,0,0,0,0,0,0,0,0,0,0,0,0,0,0,0,0,-1.8765,-1.8766,0,-1.8799,-1.88,-1.88,-1.8787,-1.8786,-1.8785,-1.8785,-1.8817,-1.8819,-1.8821,0,0,0,0,0,0,0,0,0,0,0,0,0,-1.8686,-1.8687,-1.8765,-1.8766,-1.8766,-1.8799,-1.88,-1.88,-1.8787,-1.8786,-1.8785,-1.8784,-1.8817,-1.8819,-1.8821,0,0,0,0,0,0,0,0,0,0,0,0,0,-1.872,-1.8688,-1.8765,-1.8764,-1.8764,-1.8799,-1.88,-1.88,-1.8787,-1.8786,-1.8785,-1.8784,-1.8816,-1.8819,-1.8821,-1.8859,0,0,-1.8828,-1.8829,0,0,0,0,0,0,0,0,-1.8718,-1.8723,-1.8763,-1.8764,-1.8764,-1.8788,-1.8784,-1.882,-1.8788,-1.8778,-1.8785,-1.8783,-1.8808,-1.8811,-1.882,-1.8861,-1.8862,-1.8828,-1.883,-1.8831,-1.8832,0,0,0,0,0,0,0,-1.8716,-1.8722,-1.8779,-1.8764,-1.8764,-1.876,-1.8764,-1.8791,-1.8799,-1.8779,-1.8778,-1.8783,-1.8808,-1.8818,-1.8821,-1.8863,-1.8828,-1.8831,-1.8832,-1.8833,-1.8935,-1.8936,0,0,0,0,0,0,-1.8714,-1.872,-1.8778,-1.878,-1.8738,-1.8763,-1.8767,-1.8781,-1.8799,-1.8801,-1.8784,-1.8782,-1.8814,-1.8818,-1.8822,-1.8867,-1.8831,-1.8833,-1.8835,-1.8934,-1.8935,-1.8937,0,0,0,0,0,0,-1.8712,-1.8719,-1.8776,-1.875,-1.8756,-1.8765,-1.8782,-1.8783,-1.8792,-1.8803,-1.8804,-1.8792,-1.8814,-1.8819,-1.885,-1.8868,-1.8834,-1.8836,-1.8932,-1.8934,-1.8936,-1.8958,0,0,0,0,0,0,-1.871,-1.8719,-1.8734,-1.875,-1.8758,-1.8805,-1.8783,-1.8784,-1.8797,-1.8795,-1.8811,-1.8812,-1.8813,-1.8846,-1.8852,-1.8871,-1.8838,-1.8931,-1.8933,-1.8935,-1.8955,-1.896,-1.8964,0,0,0,0,0,-1.8707,-1.8738,-1.8735,-1.8742,-1.8778,-1.8806,-1.881,-1.8811,-1.8798,-1.8813,-1.882,-1.8812,-1.8865,-1.885,-1.8856,-1.8875,-1.8929,-1.8932,-1.8935,-1.8953,-1.8959,-1.8964,0,0,0,0,0,0,-1.8724,-1.8741,-1.8737,-1.8774,-1.8789,-1.8803,-1.8822,-1.8817,-1.8835,-1.8832,-1.8832,-1.8836,-1.8868,-1.8875,-1.8857,-1.8913,-1.8895,-1.89,-1.8907,-1.8912,-1.8917,-1.8914,-1.884,0,0,0,0,0,-1.8732,-1.8754,-1.8767,-1.8799,-1.8807,-1.8813,-1.8826,-1.8825,-1.884,-1.8846,-1.8854,-1.8868,-1.8888,-1.8901,-1.892,-1.8957,-1.8959,-1.8973,-1.8977,-1.8981,-1.8984,-1.9003,-1.9009,-1.8946,-1.8946,-1.8946,0,0,-1.8748,-1.8761,-1.8775,-1.8803,-1.8814,-1.8836,-1.8819,-1.8843,-1.8859,-1.8849,-1.8879,-1.8886,-1.8901,-1.8935,-1.8951,-1.8942,-1.9002,-1.8985,-1.8987,-1.8989,-1.9006,-1.9012,-1.9018,-1.8948,-1.8948,-1.8947,0,0,-1.879,-1.8802,-1.8829,-1.8841,-1.8858,-1.8862,-1.8869,-1.8884,-1.8889,-1.8919,-1.8912,-1.893,-1.8965,-1.8975,-1.8985,-1.9031,-1.9023,-1.9037,-1.9059,-1.9077,-1.9082,-1.9087,-1.9101,-1.9107,-1.904,-1.904,-1.904,0,-1.8808,-1.8842,-1.8844,-1.8869,-1.8881,-1.8874,-1.89,-1.8911,-1.8934,-1.8941,-1.8932,-1.8974,-1.8984,-1.902,-1.9031,-1.904,-1.9046,-1.9034,-1.9082,-1.9086,-1.909,-1.9104,-1.911,-1.9042,-1.9042,-1.9042,-1.9041,0,-1.8863,-1.8886,-1.8906,-1.8928,-1.8943,-1.8968,-1.8973,-1.8987,-1.8986,-1.899,-1.9021,-1.9032,-1.9053,-1.9061,-1.906,-1.9097,-1.9091,-1.9082,-1.9064,-1.9097,-1.911,-1.9116,-1.9044,-1.9043,-1.9043,-1.9043,0,0,-1.8915,-1.8938,-1.8945,-1.8954,-1.8973,-1.899,-1.9015,-1.9036,-1.9047,-1.9063,-1.9083,-1.9112,-1.9103,-1.9115,-1.9114,-1.9131,-1.9164,-1.9119,-1.912,-1.9126,-1.9203,-1.9209,-1.9215,-1.916,-1.9161,-1.9162,-1.9201,0,-1.8957,-1.9001,-1.9003,-1.9043,-1.9064,-1.9058,-1.9079,-1.9092,-1.9097,-1.9115,-1.912,-1.914,-1.9128,-1.9135,-1.9151,-1.9157,-1.9179,-1.9154,-1.9177,-1.9178,-1.9172,-1.9222,-1.9229,-1.9266,-1.9207,-1.9208,-1.9208,0,-1.9012,-1.9029,-1.9071,-1.9086,-1.9094,-1.9114,-1.9132,-1.915,-1.9164,-1.9166,-1.9179,-1.9176,-1.92,-1.9183,-1.9215,-1.9198,-1.9207,-1.9212,-1.9213,-1.9214,-1.9194,-1.9223,-1.9278,-1.9282,-1.9217,-1.9216,-1.9215,0,-1.9043,-1.9078,-1.9107,-1.9115,-1.9134,-1.9147,-1.9155,-1.9168,-1.918,-1.9196,-1.9204,-1.9222,-1.9232,-1.9246,-1.9248,-1.9235,-1.928,-1.9263,-1.9281,-1.9281,-1.929,-1.9289,-1.9345,-1.9299,-1.9299,-1.9298,-1.9298,0,-1.9089,-1.9115,-1.9121,-1.9139,-1.9167,-1.9169,-1.9197,-1.9203,-1.9215,-1.9233,-1.9229,-1.9246,-1.9248,-1.9265,-1.9267,-1.9293,-1.9298,-1.9299,-1.9299,-1.9299,-1.9298,-1.9304,-1.9301,-1.93,-1.93,-1.9299,-1.9299,0,-1.9129,-1.9135,-1.9166,-1.9181,-1.9185,-1.9205,-1.9217,-1.9233,-1.9238,-1.9261,-1.9266,-1.9274,-1.9293,-1.9297,-1.9321,-1.9322,-1.9352,-1.935,-1.9347,-1.9346,-1.9364,-1.9362,-1.9424,-1.9432,-1.9382,-1.9383,-1.9383,0,-1.9157,-1.9176,-1.9193,-1.9205,-1.9214,-1.9234,-1.9246,-1.9249,-1.9261,-1.9279,-1.9293,-1.9312,-1.9328,-1.936,-1.9367,-1.9384,-1.9382,-1.9403,-1.9384,-1.9383,-1.938,-1.9378,-1.9379,-1.9405,-1.9406,-1.9406,-1.9407,0,-1.9205,-1.9207,-1.9226,-1.9245,-1.9259,-1.9274,-1.9289,-1.9299,-1.9303,-1.9317,-1.9338,-1.935,-1.9374,-1.9393,-1.941,-1.9417,-1.9412,-1.9413,-1.9418,-1.9417,-1.9414,-1.9414,-1.9355,-1.9411,-1.9411,-1.941,-1.941,-1.941,-1.9239,-1.9256,-1.927,-1.929,-1.9301,-1.9314,-1.933,-1.9337,-1.9355,-1.9375,-1.9375,-1.9397,-1.941,-1.9433,-1.9441,-1.9458,-1.9451,-1.9458,-1.946,-1.9461,-1.9462,-1.9413,-1.9461,-1.9461,-1.9461,-1.9461,-1.9461,0,-1.9286,-1.9295,-1.9314,-1.9334,-1.9349,-1.9344,-1.9359,-1.9372,-1.9392,-1.9405,-1.942,-1.9443,-1.9462,-1.947,-1.9488,-1.9499,-1.9497,-1.9504,-1.9502,-1.9503,-1.9468,-1.9461,-1.9505,-1.9505,-1.9505,-1.9505,-1.9505,-1.9505,-1.9312,-1.934,-1.9343,-1.9375,-1.9384,-1.9406,-1.9415,-1.9426,-1.9436,-1.9463,-1.9478,-1.9484,-1.9494,-1.9512,-1.9528,-1.953,-1.9536,-1.9543,-1.9544,-1.9511,-1.9506,-1.9502,-1.9495,-1.9545,-1.9545,-1.9578,-1.9578,-1.9578]},{"header":{"parameterUnit":"m.s-1","parameterCategory":1,"la1":30.2991,"la2":30.254,"lo1":-89.0895,"lo2":-89.0444,"dy":0.0017,"dx":0.0017,"nx":28,"ny":28,"refTime":"2025-12-12T09:00:00:Z","depth":0,"parameterNumber":3,"parameterNumberName":"V-component_of_WINDS"},"data":[0,0,0,0,0,0,0,0,0,0,0,0,0,0,0,0,0,0,0,0,0,0,0,0,0,0,0,0,0,0,0,0,0,0,0,0,0,0,0,0,0,0,0,0,0,0,0,0,0,0,0,0,0,0,0,0,0,0,0.4406,0.4407,0,0.4474,0.4475,0.4476,0.4454,0.4453,0.4451,0.445,0.4523,0.4526,0.4529,0,0,0,0,0,0,0,0,0,0,0,0,0,0.4263,0.4266,0.4406,0.4407,0.4408,0.4474,0.4475,0.4476,0.4454,0.4453,0.4451,0.4449,0.4522,0.4526,0.453,0,0,0,0,0,0,0,0,0,0,0,0,0,0.4328,0.4267,0.4406,0.4405,0.4406,0.4474,0.4475,0.4476,0.4455,0.4453,0.445,0.4448,0.4521,0.4525,0.453,0.4605,0,0,0.4545,0.4548,0,0,0,0,0,0,0,0,0.4324,0.4333,0.4404,0.4405,0.4406,0.4453,0.4451,0.4519,0.4455,0.4436,0.445,0.4447,0.4502,0.4508,0.4526,0.4608,0.4611,0.4546,0.4549,0.4551,0.4552,0,0,0,0,0,0,0,0.432,0.433,0.4433,0.4406,0.4407,0.4403,0.441,0.4464,0.4481,0.4438,0.4436,0.4444,0.4502,0.4521,0.4527,0.4612,0.4546,0.455,0.4553,0.4555,0.4763,0.4765,0,0,0,0,0,0,0.4314,0.4326,0.4431,0.4435,0.4359,0.4407,0.4415,0.4441,0.448,0.4484,0.4446,0.4443,0.4514,0.4522,0.453,0.4622,0.4551,0.4556,0.4558,0.476,0.4763,0.4766,0,0,0,0,0,0,0.4311,0.4324,0.4428,0.4381,0.4394,0.4412,0.4441,0.4443,0.4462,0.4486,0.449,0.4463,0.4512,0.4523,0.4587,0.4624,0.4558,0.4562,0.4757,0.4761,0.4765,0.4805,0,0,0,0,0,0,0.4307,0.4323,0.435,0.4381,0.4396,0.4483,0.4443,0.4446,0.447,0.4467,0.4502,0.4506,0.4511,0.458,0.4592,0.463,0.4566,0.4754,0.4759,0.4763,0.4801,0.481,0.4818,0,0,0,0,0,0.4302,0.4358,0.4351,0.4364,0.443,0.4485,0.4494,0.4497,0.4473,0.4502,0.4518,0.4505,0.4618,0.4586,0.46,0.464,0.4752,0.4758,0.4763,0.4797,0.4808,0.4818,0,0,0,0,0,0,0.4331,0.4362,0.4355,0.4423,0.4451,0.4481,0.4517,0.4509,0.4545,0.4541,0.4545,0.4553,0.4619,0.4636,0.46,0.4716,0.4681,0.469,0.4702,0.4713,0.4722,0.4717,0.457,0,0,0,0,0,0.4346,0.4386,0.4411,0.4469,0.4484,0.4498,0.4522,0.4522,0.4553,0.4565,0.4585,0.4616,0.4659,0.4687,0.4727,0.4803,0.4812,0.4837,0.4846,0.4853,0.4861,0.4905,0.4917,0.4785,0.4785,0.4785,0,0,0.4376,0.4398,0.4423,0.4476,0.4498,0.4542,0.4508,0.4555,0.4588,0.4572,0.4634,0.4651,0.4686,0.4756,0.4789,0.4772,0.4899,0.486,0.4865,0.487,0.4912,0.4925,0.4936,0.4789,0.4788,0.4787,0,0,0.4454,0.4473,0.4525,0.4548,0.4581,0.4591,0.4603,0.4635,0.4645,0.4707,0.4697,0.4737,0.4809,0.4836,0.4859,0.4949,0.494,0.4962,0.5007,0.505,0.5061,0.507,0.5105,0.5117,0.4969,0.497,0.497,0,0.4487,0.4551,0.4552,0.4601,0.4626,0.4612,0.4666,0.4689,0.4735,0.4753,0.4734,0.4826,0.4849,0.4927,0.4949,0.4967,0.4984,0.4958,0.5059,0.5068,0.5077,0.511,0.5123,0.4972,0.4972,0.4972,0.4971,0,0.4592,0.4637,0.4674,0.4719,0.4747,0.4798,0.4809,0.4839,0.4838,0.485,0.4915,0.4941,0.4988,0.5007,0.5005,0.5086,0.5075,0.5057,0.5023,0.5092,0.5124,0.5136,0.4976,0.4975,0.4974,0.4974,0,0,0.4689,0.4735,0.4749,0.477,0.4807,0.4843,0.4894,0.4939,0.4966,0.4998,0.5043,0.5106,0.5091,0.5117,0.5119,0.5157,0.523,0.5135,0.5136,0.5154,0.5323,0.5338,0.5352,0.5224,0.5226,0.5228,0.5321,0,0.4772,0.4861,0.4865,0.4947,0.499,0.4979,0.5024,0.5053,0.5067,0.5107,0.5122,0.5167,0.5142,0.5158,0.5195,0.5213,0.5264,0.5206,0.5268,0.527,0.5261,0.5368,0.5383,0.5469,0.5333,0.5335,0.5337,0,0.4879,0.4915,0.5001,0.5035,0.5053,0.5093,0.5137,0.5174,0.5208,0.5215,0.5245,0.5243,0.5298,0.5262,0.534,0.53,0.5326,0.5339,0.5343,0.535,0.5309,0.538,0.5496,0.551,0.5355,0.5354,0.5353,0,0.4945,0.5014,0.5076,0.5094,0.5134,0.5163,0.5181,0.5213,0.5241,0.5279,0.5298,0.5342,0.5367,0.5402,0.5413,0.5385,0.5492,0.5455,0.5502,0.5502,0.5526,0.5524,0.565,0.5539,0.5539,0.5539,0.5538,0,0.5037,0.5091,0.5106,0.5144,0.5205,0.521,0.527,0.5287,0.5316,0.5359,0.5352,0.5393,0.5403,0.5447,0.5455,0.5521,0.5531,0.5541,0.5543,0.5542,0.5541,0.556,0.5555,0.5542,0.5541,0.5541,0.554,0,0.512,0.5132,0.5199,0.5232,0.5241,0.5285,0.5314,0.5352,0.5365,0.5419,0.5432,0.5453,0.5504,0.5518,0.5579,0.5585,0.5663,0.5658,0.5651,0.5651,0.5698,0.5694,0.5842,0.5862,0.5736,0.5737,0.5738,0,0.5179,0.522,0.5258,0.5286,0.5305,0.535,0.5378,0.5386,0.5416,0.5459,0.5493,0.5543,0.5583,0.5666,0.5688,0.5735,0.5733,0.5781,0.574,0.574,0.5737,0.5735,0.5741,0.579,0.5791,0.5792,0.5793,0,0.5283,0.5288,0.5328,0.5372,0.5406,0.5441,0.5474,0.5498,0.5511,0.5545,0.5597,0.5629,0.5692,0.5743,0.5791,0.5812,0.5806,0.5806,0.582,0.582,0.5816,0.5821,0.5674,0.5803,0.5802,0.5801,0.58,0.58,0.5358,0.5395,0.5428,0.5474,0.55,0.5532,0.557,0.5588,0.5631,0.5682,0.5684,0.5741,0.5777,0.5842,0.5866,0.5912,0.5898,0.5917,0.5922,0.5927,0.5933,0.5807,0.5921,0.592,0.592,0.592,0.592,0,0.5464,0.5485,0.5527,0.5574,0.5612,0.5601,0.5638,0.5671,0.5721,0.5754,0.5794,0.5856,0.5905,0.5932,0.5982,0.6015,0.6013,0.6028,0.6027,0.6032,0.5941,0.5925,0.6028,0.6028,0.6028,0.6028,0.6028,0.6028,0.5523,0.5586,0.5595,0.5672,0.5693,0.5748,0.5771,0.5802,0.5829,0.5897,0.5938,0.5954,0.5986,0.6039,0.6086,0.6092,0.6112,0.6129,0.6134,0.6049,0.6038,0.6028,0.6013,0.6133,0.6133,0.6222,0.6223,0.6223]}]]